Regional Weather Roundup
Issued by NWS

Home | Current Version | Previous Version | Graphics & Text | Print | Product List | Glossary On
Versions: 1 2 3 4 5 6 7 8 9 10 11 12 13 14 15 16 17 18 19 20 21 22 23 24 25 26 27 28
000
ASUS45 KCYS 261210
RWRWY

WYOMING REGIONAL WEATHER ROUNDUP
NATIONAL WEATHER SERVICE CHEYENNE WY
600 AM MDT SUN MAR 26 2017

NOTE:  "FAIR" INDICATES FEW OR NO CLOUDS BELOW 12,000 FEET
WITH NO SIGNIFICANT WEATHER AND/OR OBSTRUCTIONS TO VISIBILITY.

WYZ001-261300-
YELLOWSTONE NATIONAL PARK

CITY           SKY/WX    TMP DP  RH WIND       PRES   REMARKS
LK YELLOWSTONE   N/A     22  20  92 CALM      29.99R
6HR MIN TEMP:  20; 6HR MAX TEMP:  24;

W YELLOWSTONE  NOT AVBL

$$
WYZ002>013-054>058-071-098>099-261300-
NORTHERN WYOMING

CITY           SKY/WX    TMP DP  RH WIND       PRES   REMARKS
JACKSON        FAIR      28  25  86 CALM      29.99R
CODY           MOCLDY    33  25  72 SW8       29.94  WCI  26
GREYBULL         N/A     33  30  88 CALM      29.92R
6HR MIN TEMP:  32; 6HR MAX TEMP:  43;

WORLAND        FAIR      36  35  96 S6        29.92S WCI  31
6HR MIN TEMP:  35; 6HR MAX TEMP:  42;

SHERIDAN       MOCLDY    35  33  92 CALM      29.93R
6HR MIN TEMP:  33; 6HR MAX TEMP:  39; 6HR PCP:  0.06;

BUFFALO        MOCLDY    37  32  82 NW8       29.92R WCI  31
6HR MIN TEMP:  35; 6HR MAX TEMP:  39; 6HR PCP:  0.10;

GILLETTE       CLOUDY    39  37  92 N10       29.89S WCI  32
6HR MIN TEMP:  39; 6HR MAX TEMP:  42;

HULETT         CLOUDY    39  36  87 N7        29.90S WCI  34
NEWCASTLE      CLOUDY    43  34  70 NW10      29.82S

$$
WYZ014>020-022>026-101>103-261300-
CENTRAL WYOMING

CITY           SKY/WX    TMP DP  RH WIND       PRES   REMARKS
BIG PINEY      FAIR      23  18  81 N6        29.97R WCI  16
6HR MIN TEMP:  23; 6HR MAX TEMP:  30;

PINEDALE       FAIR      25  19  80 NW7       29.97R WCI  17
DUBOIS         PTSUNNY   28  21  74 NW5       29.94R WCI  23
LANDER         CLOUDY    36  34  92 S3        29.93S
6HR MIN TEMP:  36; 6HR MAX TEMP:  39; 6HR PCP:  0.03;

RIVERTON       CLOUDY    37  35  92 W9        29.93S WCI  30
6HR MIN TEMP:  37; 6HR MAX TEMP:  38; 6HR PCP:  0.01;

CASPER         LGT RAIN  36  35  96 N8        29.91S WCI  30
6HR MIN TEMP:  35; 6HR MAX TEMP:  41; 6HR PCP:  0.20;

DOUGLAS        LGT RAIN  37  35  92 NW10      29.90R WCI  30
6HR MIN TEMP:  37; 6HR MAX TEMP:  46; 6HR PCP:  0.05;


$$
WYZ021-027>030-104>119-261300-
SOUTHERN WYOMING

CITY           SKY/WX    TMP DP  RH WIND       PRES   REMARKS
EVANSTON       FAIR      24  21  88 SW8       30.00S WCI  15
6HR MIN TEMP:  24; 6HR MAX TEMP:  32;

FORT BRIDGER   FAIR      30  28  91 SW9       30.03R WCI  21
ROCK SPRINGS   FAIR      31  27  85 W10       29.97S WCI  22
6HR MIN TEMP:  31; 6HR MAX TEMP:  37; 6HR PCP: TRACE;

DIXON            N/A     35  32  88 W9        29.96R WCI  28
RAWLINS        CLOUDY    34  31  88 NW13      29.90R WCI  25
6HR MIN TEMP:  34; 6HR MAX TEMP:  41; 6HR PCP: TRACE;

SARATOGA       CLOUDY    36  36 100 W12G23    29.90S WCI  27
LARAMIE        CLOUDY    33  33 100 CALM      29.86R
6HR MIN TEMP:  33; 6HR MAX TEMP:  43; 6HR PCP:  0.09;

CHEYENNE       CLOUDY    40  34  79 N7        29.84R
6HR MIN TEMP:  40; 6HR MAX TEMP:  46;

TORRINGTON     CLOUDY    45  34  65 N10       29.81R
6HR MIN TEMP:  42; 6HR MAX TEMP:  50;

PINE BLUFFS    CLOUDY    41  36  81 CALM      29.82R

$$




USA.gov is the U.S. government's official web portal to all federal, state and local government web resources and services.